EW3958 Weather Reports


Display with metric or nautical units.
time (UTC)temp
F
wind
direction
speed
MPH
gust
MPH
rain 1hr
in
rain 24hr
in
rain mn
in
humidity
%
barometer
mb
20181118160021 27 246 9.0 17.0 0.00 0.00 0.00 71 1020.5
20181118155521 26 239 9.0 14.0 0.00 0.00 0.00 71 1020.6
20181118155020 25 238 9.0 14.0 0.00 0.00 0.00 72 1020.6
20181118154522 25 238 9.0 15.0 0.00 0.00 0.00 74 1020.8
20181118154021 24 235 9.0 15.0 0.00 0.00 0.00 75 1020.9
20181118153520 24 235 10.0 15.0 0.00 0.00 0.00 76 1021.0
20181118153020 23 232 11.0 17.0 0.00 0.00 0.00 77 1021.1
20181118152520 22 232 10.0 17.0 0.00 0.00 0.00 76 1021.0
20181118152020 22 232 9.0 15.0 0.00 0.00 0.00 77 1021.1
20181118151520 21 231 10.0 15.0 0.00 0.00 0.00 78 1021.0
20181118151020 21 237 9.0 16.0 0.00 0.00 0.00 79 1021.1
20181118150520 20 238 8.0 16.0 0.00 0.00 0.00 79 1021.2
20181118150022 20 233 7.0 11.0 0.00 0.00 0.00 80 1021.2
20181118145521 20 231 7.0 11.0 0.00 0.00 0.00 81 1021.1
20181118145021 19 230 7.0 11.0 0.00 0.00 0.00 83 1021.0
20181118144521 18 231 6.0 10.0 0.00 0.00 0.00 83 1021.1
20181118144021 17 235 5.0 9.0 0.00 0.00 0.00 83 1021.1
20181118143521 16 243 5.0 10.0 0.00 0.00 0.00 84 1021.3
20181118143021 16 247 5.0 10.0 0.00 0.00 0.00 84 1021.4
20181118142521 15 242 5.0 9.0 0.00 0.00 0.00 85 1021.6
20181118142021 14 236 5.0 9.0 0.00 0.00 0.00 85 1021.5
20181118141521 14 233 5.0 9.0 0.00 0.00 0.00 84 1021.6
20181118141021 13 239 4.0 8.0 0.00 0.00 0.00 86 1021.7
20181118140521 12 249 3.0 8.0 0.00 0.00 0.00 86 1021.8
20181118140021 12 243 3.0 6.0 0.00 0.00 0.00 87 1021.9
20181118135521 12 232 3.0 5.0 0.00 0.00 0.00 86 1022.1
20181118135021 12 231 3.0 5.0 0.00 0.00 0.00 85 1022.2
20181118134521 12 235 2.0 3.0 0.00 0.00 0.00 86 1022.1
20181118134021 12 243 1.0 3.0 0.00 0.00 0.00 86 1022.2
20181118133521 12 247 1.0 3.0 0.00 0.00 0.00 86 1022.3
20181118133021 12 252 2.0 3.0 0.00 0.00 0.00 86 1022.3
20181118132520 12 257 2.0 8.0 0.00 0.00 0.00 86 1022.3
20181118132020 12 262 3.0 8.0 0.00 0.00 0.00 86 1022.4
20181118131520 12 269 3.0 8.0 0.00 0.00 0.00 86 1022.5
20181118131020 12 267 4.0 8.0 0.00 0.00 0.00 87 1022.5
20181118130520 12 262 4.0 8.0 0.00 0.00 0.00 86 1022.5
20181118130022 12 260 5.0 8.0 0.00 0.00 0.00 86 1022.6
20181118125521 13 262 5.0 8.0 0.00 0.00 0.00 86 1022.7
20181118125021 12 263 4.0 8.0 0.00 0.00 0.00 86 1022.8
20181118124521 12 258 5.0 9.0 0.00 0.00 0.00 86 1022.8
20181118124021 12 253 5.0 9.0 0.00 0.00 0.00 86 1022.8
20181118123521 13 248 5.0 9.0 0.00 0.00 0.00 86 1022.9
20181118123021 13 244 5.0 9.0 0.00 0.00 0.00 86 1023.0
20181118122520 12 244 5.0 9.0 0.00 0.00 0.00 86 1023.1
20181118122020 12 249 5.0 9.0 0.00 0.00 0.00 86 1023.2
20181118121520 11 255 5.0 9.0 0.00 0.00 0.00 87 1023.4
20181118121021 11 261 4.0 9.0 0.00 0.00 0.00 87 1023.4
20181118120521 11 258 4.0 8.0 0.00 0.00 0.00 87 1023.5
20181118120021 11 252 4.0 7.0 0.00 0.00 0.00 87 1023.5
20181118115521 10 254 4.0 7.0 0.00 0.00 0.00 87 1023.4
20181118115021 10 254 3.0 6.0 0.00 0.00 0.00 87 1023.5
20181118114521 11 255 4.0 6.0 0.00 0.00 0.00 87 1023.5
20181118114021 11 256 3.0 6.0 0.00 0.00 0.00 86 1023.6
20181118113520 11 253 3.0 6.0 0.00 0.00 0.00 87 1023.6
20181118113020 11 243 2.0 3.0 0.00 0.00 0.00 87 1023.7
20181118112521 11 227 2.0 3.0 0.00 0.00 0.00 87 1023.7
20181118112020 11 217 3.0 3.0 0.00 0.00 0.00 86 1023.7
20181118111520 11 215 2.0 3.0 0.00 0.00 0.00 85 1023.8
20181118111020 12 215 2.0 3.0 0.00 0.00 0.00 86 1023.8
20181118110521 11 218 2.0 5.0 0.00 0.00 0.00 86 1023.7
20181118110021 12 221 3.0 5.0 0.00 0.00 0.00 86 1023.5
20181118105521 12 222 3.0 5.0 0.00 0.00 0.00 86 1023.6
20181118105021 12 221 3.0 5.0 0.00 0.00 0.00 86 1023.8
20181118104520 12 222 3.0 5.0 0.00 0.00 0.00 86 1024.1
20181118104020 12 226 3.0 3.0 0.00 0.00 0.00 86 1024.2
20181118103521 12 232 3.0 3.0 0.00 0.00 0.00 86 1024.1
20181118103021 12 242 2.0 3.0 0.00 0.00 0.00 86 1024.2
20181118102521 11 248 2.0 3.0 0.00 0.00 0.00 87 1024.1
20181118102021 11 247 2.0 3.0 0.00 0.00 0.00 87 1024.1
20181118101520 11 246 2.0 5.0 0.00 0.00 0.00 87 1024.2
20181118101020 11 245 2.0 5.0 0.00 0.00 0.00 87 1024.3
20181118100520 11 244 2.0 3.0 0.00 0.00 0.00 87 1024.2
20181118100021 11 241 2.0 5.0 0.00 0.00 0.00 87 1024.4
20181118095520 11 243 2.0 5.0 0.00 0.00 0.00 87 1024.4
20181118095020 10 250 2.0 3.0 0.00 0.00 0.00 87 1024.5
20181118094520 11 244 2.0 6.0 0.00 0.00 0.00 87 1024.7
20181118094021 11 246 3.0 6.0 0.00 0.00 0.00 87 1024.7
20181118093520 10 253 3.0 5.0 0.00 0.00 0.00 88 1024.8
20181118093020 10 256 2.0 5.0 0.00 0.00 0.00 87 1024.8
20181118092520 11 258 2.0 3.0 0.00 0.00 0.00 87 1024.8
20181118092020 11 255 2.0 5.0 0.00 0.00 0.00 87 1024.9
20181118091520 11 256 3.0 6.0 0.00 0.00 0.00 87 1025.0
20181118091020 11 258 3.0 6.0 0.00 0.00 0.00 86 1025.0
20181118090520 11 263 3.0 7.0 0.00 0.00 0.00 87 1025.0
20181118090020 11 263 3.0 7.0 0.00 0.00 0.00 87 1025.1
20181118085520 11 254 3.0 7.0 0.00 0.00 0.00 87 1025.1
20181118085020 11 253 4.0 6.0 0.00 0.00 0.00 87 1025.2
20181118084520 11 250 4.0 5.0 0.00 0.00 0.00 86 1025.2
20181118084020 11 247 3.0 5.0 0.00 0.00 0.00 86 1025.3
20181118083519 11 253 3.0 5.0 0.00 0.00 0.00 86 1025.5
20181118083020 12 246 3.0 7.0 0.00 0.00 0.00 86 1025.6
20181118082520 12 242 4.0 8.0 0.00 0.00 0.00 86 1025.5
20181118082019 12 238 4.0 8.0 0.00 0.00 0.00 86 1025.7
20181118081520 12 234 4.0 7.0 0.00 0.00 0.00 87 1025.7
20181118081020 12 237 3.0 6.0 0.00 0.00 0.00 87 1025.9
20181118080520 12 248 3.0 7.0 0.00 0.00 0.00 87 1026.1
20181118080020 11 260 3.0 7.0 0.00 0.00 0.00 88 1026.2
20181118075519 11 264 3.0 6.0 0.00 0.00 0.00 88 1026.2
20181118075020 12 265 3.0 6.0 0.00 0.00 0.00 88 1026.3
20181118074520 11 262 2.0 5.0 0.00 0.00 0.00 88 1026.4
20181118074020 12 260 2.0 3.0 0.00 0.00 0.00 88 1026.4
20181118073520 12 257 2.0 3.0 0.00 0.00 0.00 88 1026.4
20181118073020 12 250 2.0 3.0 0.00 0.00 0.00 88 1026.4
20181118072520 12 248 2.0 5.0 0.00 0.00 0.00 88 1026.4
20181118072020 12 256 3.0 5.0 0.00 0.00 0.00 88 1026.5
20181118071520 12 260 3.0 5.0 0.00 0.00 0.00 88 1026.5
20181118071020 12 255 3.0 5.0 0.00 0.00 0.00 88 1026.5
20181118070521 12 252 3.0 5.0 0.00 0.00 0.00 88 1026.7
20181118070020 12 249 3.0 3.0 0.00 0.00 0.00 88 1026.9
20181118065520 13 245 2.0 3.0 0.00 0.00 0.00 88 1026.9
20181118065020 13 243 2.0 3.0 0.00 0.00 0.00 88 1027.0
20181118064520 13 239 2.0 3.0 0.00 0.00 0.00 88 1026.9
20181118064021 14 235 2.0 5.0 0.00 0.00 0.00 88 1027.0
20181118063519 14 241 3.0 5.0 0.00 0.00 0.00 88 1027.1
20181118063019 14 248 3.0 6.0 0.00 0.00 0.00 88 1027.1
20181118062520 14 254 3.0 6.0 0.00 0.00 0.00 88 1027.1
20181118062020 14 252 3.0 5.0 0.00 0.00 0.00 88 1027.1
20181118061519 14 246 3.0 7.0 0.00 0.00 0.00 88 1027.2
20181118061019 14 242 4.0 7.0 0.00 0.00 0.00 87 1027.4
20181118060519 14 240 4.0 7.0 0.00 0.00 0.00 87 1027.4
20181118060021 14 246 3.0 7.0 0.00 0.00 0.00 88 1027.5
20181118055520 14 248 3.0 8.0 0.00 0.00 0.00 87 1027.6
20181118055019 15 243 4.0 9.0 0.00 0.00 0.00 88 1027.7
20181118054519 15 240 4.0 9.0 0.00 0.00 0.00 87 1027.7
20181118054019 15 233 4.0 8.0 0.00 0.00 0.00 87 1027.8
20181118053519 15 232 4.0 7.0 0.00 0.00 0.00 87 1027.9
20181118053019 15 230 4.0 7.0 0.00 0.00 0.00 87 1027.9
20181118052519 16 231 4.0 7.0 0.00 0.00 0.00 87 1028.0
20181118052019 16 235 4.0 7.0 0.00 0.00 0.00 87 1028.1
20181118051519 16 234 4.0 7.0 0.00 0.00 0.00 87 1028.2
20181118051020 16 231 4.0 8.0 0.00 0.00 0.00 87 1028.2
20181118050520 16 228 4.0 8.0 0.00 0.00 0.00 86 1028.3
20181118050021 16 236 4.0 7.0 0.00 0.00 0.00 86 1028.3
20181118045520 16 242 4.0 7.0 0.00 0.00 0.00 86 1028.4
20181118045020 17 247 4.0 9.0 0.00 0.00 0.00 86 1028.3
20181118044520 17 255 5.0 10.0 0.00 0.00 0.00 85 1028.5
20181118044019 18 257 5.0 10.0 0.00 0.00 0.00 85 1028.5
20181118043520 18 260 4.0 9.0 0.00 0.00 0.00 85 1028.6
20181118043020 19 263 5.0 9.0 0.00 0.00 0.00 84 1028.6
20181118042520 19 263 5.0 9.0 0.00 0.00 0.00 84 1028.7
20181118042020 19 269 6.0 11.0 0.00 0.00 0.00 84 1028.7
20181118041519 19 271 7.0 15.0 0.00 0.00 0.00 84 1028.7
20181118041020 19 268 6.0 15.0 0.00 0.00 0.00 83 1028.7
20181118040520 19 261 3.0 11.0 0.00 0.00 0.00 84 1028.6
20181118040020 19 263 4.0 9.0 0.00 0.00 0.00 83 1028.7
20181118035520 19 268 5.0 9.0 0.00 0.00 0.00 84 1028.6
20181118035020 19 278 4.0 10.0 0.00 0.00 0.00 84 1028.6
20181118034520 19 276 5.0 12.0 0.00 0.00 0.00 83 1028.7
20181118034021 19 266 6.0 12.0 0.00 0.00 0.00 83 1028.7
20181118033521 19 255 5.0 10.0 0.00 0.00 0.00 83 1028.7
20181118033021 19 252 3.0 8.0 0.00 0.00 0.00 83 1028.7
20181118032520 19 264 3.0 9.0 0.00 0.00 0.00 83 1028.8
20181118032021 19 266 4.0 9.0 0.00 0.00 0.00 81 1028.9
20181118031520 19 260 4.0 9.0 0.00 0.00 0.00 81 1028.9
20181118031020 19 261 3.0 7.0 0.00 0.00 0.00 81 1029.0
20181118030520 19 273 2.0 7.0 0.00 0.00 0.00 81 1029.0
20181118030021 18 279 2.0 7.0 0.00 0.00 0.00 83 1029.0
20181118025520 18 283 2.0 5.0 0.00 0.00 0.00 81 1029.1
20181118025019 18 285 3.0 7.0 0.00 0.00 0.00 81 1029.2
20181118024520 18 283 3.0 8.0 0.00 0.00 0.00 81 1029.3
20181118024020 18 283 3.0 8.0 0.00 0.00 0.00 81 1029.4
20181118023519 18 273 3.0 9.0 0.00 0.00 0.00 81 1029.4
20181118023019 18 273 3.0 9.0 0.00 0.00 0.00 81 1029.4
20181118022519 18 291 3.0 8.0 0.00 0.00 0.00 81 1029.4
20181118022019 18 299 3.0 8.0 0.00 0.00 0.00 80 1029.5
20181118021519 18 304 2.0 6.0 0.00 0.00 0.00 81 1029.6
20181118021019 18 296 3.0 8.0 0.00 0.00 0.00 81 1029.6
20181118020519 18 292 4.0 8.0 0.00 0.00 0.00 81 1029.6
20181118020020 18 297 3.0 8.0 0.00 0.00 0.00 81 1029.6
20181118015519 18 310 3.0 7.0 0.00 0.00 0.00 81 1029.7
20181118015019 18 307 3.0 8.0 0.00 0.00 0.00 81 1029.7
20181118014519 18 296 3.0 8.0 0.00 0.00 0.00 81 1029.6
20181118014020 18 301 2.0 5.0 0.00 0.00 0.00 81 1029.7
20181118013519 18 322 1.0 3.0 0.00 0.00 0.00 80 1029.7
20181118013019 18 331 1.0 3.0 0.00 0.00 0.00 80 1029.7
20181118012519 18 332 2.0 3.0 0.00 0.00 0.00 80 1029.8
20181118012020 18 338 2.0 6.0 0.00 0.00 0.00 80 1029.8
20181118011519 18 341 3.0 6.0 0.00 0.00 0.00 80 1029.8
20181118011019 18 346 3.0 6.0 0.00 0.00 0.00 80 1029.7
20181118010519 18 343 2.0 5.0 0.00 0.00 0.00 79 1029.8
20181118010020 18 321 2.0 5.0 0.00 0.00 0.00 79 1029.8
20181118005519 18 318 2.0 6.0 0.00 0.00 0.00 79 1029.9
20181118005020 18 319 3.0 6.0 0.00 0.00 0.00 79 1029.8
20181118004519 18 317 2.0 5.0 0.00 0.00 0.00 79 1029.8
20181118004019 18 320 3.0 5.0 0.00 0.00 0.00 79 1029.7
20181118003519 18 319 3.0 5.0 0.00 0.00 0.00 79 1029.7
20181118003019 18 299 3.0 5.0 0.00 0.00 0.00 78 1029.7
20181118002519 18 300 3.0 5.0 0.00 0.00 0.00 78 1029.8
20181118002019 18 315 2.0 5.0 0.00 0.00 0.00 78 1029.8
20181118001519 18 304 3.0 7.0 0.00 0.00 0.00 78 1029.8
20181118001019 18 309 2.0 7.0 0.00 0.00 0.00 78 1029.8
20181118000519 18 335 2.0 5.0 0.00 0.00 0.00 78 1029.9
20181118000021 18 357 3.0 7.0 0.00 0.00 0.00 79 1029.8
20181117235519 18 355 3.0 7.0 0.00 0.00 0.00 77 1029.6
20181117235019 18 341 3.0 7.0 0.00 0.00 0.00 77 1029.6
20181117234519 18 327 3.0 7.0 0.00 0.00 0.00 77 1029.7
20181117234019 18 305 2.0 6.0 0.00 0.00 0.00 77 1029.7
20181117233519 18 316 2.0 6.0 0.00 0.00 0.00 76 1029.8
20181117233020 18 337 3.0 6.0 0.00 0.00 0.00 77 1029.8
20181117232519 18 344 3.0 6.0 0.00 0.00 0.00 76 1029.6
20181117232019 18 348 3.0 6.0 0.00 0.00 0.00 76 1029.5
20181117231519 18 346 3.0 6.0 0.00 0.00 0.00 76 1029.6
20181117231019 18 346 3.0 7.0 0.00 0.00 0.00 76 1029.7
20181117230519 18 348 5.0 12.0 0.00 0.00 0.00 76 1029.8
20181117230020 19 351 6.0 12.0 0.00 0.00 0.00 75 1029.8
20181117225520 19 354 5.0 9.0 0.00 0.00 0.00 75 1029.8
20181117225020 19 337 4.0 8.0 0.00 0.00 0.00 75 1029.8
20181117224519 19 335 5.0 11.0 0.00 0.00 0.00 74 1029.9
20181117224020 19 349 6.0 11.0 0.00 0.00 0.00 74 1030.0
20181117223520 19 335 5.0 9.0 0.00 0.00 0.00 73 1029.9
20181117223019 19 330 6.0 10.0 0.00 0.00 0.00 73 1030.0
20181117222520 20 349 6.0 10.0 0.00 0.00 0.00 74 1030.0
20181117222019 19 354 7.0 12.0 0.00 0.00 0.00 74 1030.1
20181117221520 20 346 6.0 12.0 0.00 0.00 0.00 73 1030.0
20181117221019 20 335 4.0 12.0 0.00 0.00 0.00 73 1030.1
20181117220519 20 348 4.0 7.0 0.00 0.00 0.00 73 1030.0
20181117220021 20 357 5.0 9.0 0.00 0.00 0.00 73 1030.1
20181117215519 20 358 5.0 9.0 0.00 0.00 0.00 74 1030.1
20181117215019 20 352 5.0 9.0 0.00 0.00 0.00 73 1030.3
20181117214520 20 350 4.0 9.0 0.00 0.00 0.00 73 1030.3
20181117214020 20 354 5.0 10.0 0.00 0.00 0.00 72 1030.2
20181117213519 20 347 5.0 10.0 0.00 0.00 0.00 73 1030.3
20181117213019 20 349 5.0 10.0 0.00 0.00 0.00 75 1030.3
20181117212520 20 352 5.0 10.0 0.00 0.00 0.00 75 1030.4
20181117212020 20 357 4.0 7.0 0.00 0.00 0.00 74 1030.4
20181117211520 20 1 3.0 7.0 0.00 0.00 0.00 74 1030.4
20181117211020 19 350 5.0 11.0 0.00 0.00 0.00 74 1030.6
20181117210519 19 352 6.0 11.0 0.00 0.00 0.00 74 1030.5
20181117210021 19 358 5.0 10.0 0.00 0.00 0.00 74 1030.6
20181117205520 20 10 5.0 9.0 0.00 0.00 0.00 74 1030.4
20181117205019 20 22 5.0 9.0 0.00 0.00 0.00 73 1030.5
20181117204519 20 17 4.0 9.0 0.00 0.00 0.00 74 1030.5
20181117204020 20 9 4.0 9.0 0.00 0.00 0.00 74 1030.6
20181117203520 20 356 5.0 12.0 0.00 0.00 0.00 74 1030.5
20181117203020 20 340 6.0 12.0 0.00 0.00 0.00 73 1030.5
20181117202520 19 357 6.0 10.0 0.00 0.00 0.00 74 1030.6
20181117202020 20 8 5.0 10.0 0.00 0.00 0.00 75 1030.6
20181117201519 20 359 5.0 10.0 0.00 0.00 0.00 74 1030.7
20181117201019 20 359 6.0 11.0 0.00 0.00 0.00 75 1030.7
20181117200519 19 356 7.0 11.0 0.00 0.00 0.00 74 1030.7
20181117200021 19 352 7.0 10.0 0.00 0.00 0.00 74 1030.6
20181117195519 19 351 7.0 11.0 0.00 0.00 0.00 75 1030.6
20181117195020 19 355 7.0 11.0 0.00 0.00 0.00 75 1030.7
20181117194519 19 11 6.0 11.0 0.00 0.00 0.00 75 1030.8
20181117194019 19 23 6.0 11.0 0.00 0.00 0.00 76 1030.8
20181117193520 19 26 5.0 10.0 0.00 0.00 0.00 77 1030.8
20181117193019 19 17 6.0 10.0 0.00 0.00 0.00 76 1030.8
20181117192519 19 2 8.0 14.0 0.00 0.00 0.00 77 1031.0
20181117192019 18 7 8.0 14.0 0.00 0.00 0.00 78 1031.0
20181117191519 19 25 7.0 12.0 0.00 0.00 0.00 77 1031.1
20181117191019 19 16 7.0 12.0 0.00 0.00 0.00 77 1031.1
20181117190519 18 14 7.0 12.0 0.00 0.00 0.00 78 1031.0
20181117190020 19 32 9.0 15.0 0.00 0.00 0.00 77 1031.0
20181117185519 19 32 9.0 15.0 0.00 0.00 0.00 75 1031.0
20181117185019 19 25 8.0 15.0 0.00 0.00 0.00 76 1031.1
20181117184520 19 30 7.0 15.0 0.00 0.00 0.00 77 1031.1
20181117184020 19 23 7.0 16.0 0.00 0.00 0.00 79 1031.2
20181117183520 18 12 7.0 16.0 0.00 0.00 0.00 80 1031.2
20181117183020 18 18 6.0 11.0 0.00 0.00 0.00 79 1031.3
20181117182520 18 28 5.0 9.0 0.00 0.00 0.00 80 1031.4
20181117182020 18 22 6.0 11.0 0.00 0.00 0.00 81 1031.6
20181117181520 17 21 7.0 12.0 0.00 0.00 0.00 81 1031.5
20181117181020 18 28 6.0 12.0 0.00 0.00 0.00 80 1031.5
20181117180520 18 27 5.0 11.0 0.00 0.00 0.00 79 1031.5
20181117180021 18 31 8.0 12.0 0.00 0.00 0.00 83 1031.6
20181117175520 17 32 8.0 12.0 0.00 0.00 0.00 83 1031.7
20181117175020 17 26 6.0 11.0 0.00 0.00 0.00 83 1031.7
20181117174520 16 26 6.0 11.0 0.00 0.00 0.00 81 1031.7
20181117174020 17 27 7.0 10.0 0.00 0.00 0.00 81 1031.6
20181117173521 17 28 8.0 15.0 0.00 0.00 0.00 83 1031.7
20181117173020 16 24 8.0 15.0 0.00 0.00 0.00 83 1031.8
20181117172520 17 24 8.0 14.0 0.00 0.00 0.00 83 1031.8
20181117172020 17 16 7.0 14.0 0.00 0.00 0.00 84 1032.0
20181117171520 16 9 8.0 15.0 0.00 0.00 0.00 85 1031.9
20181117171020 16 21 7.0 15.0 0.00 0.00 0.00 83 1031.9
20181117170520 17 40 6.0 12.0 0.00 0.00 0.00 86 1031.9
20181117170020 16 37 6.0 12.0 0.00 0.00 0.00 85 1032.0
20181117165519 16 25 7.0 15.0 0.00 0.00 0.00 85 1031.9
20181117165020 16 27 9.0 15.0 0.00 0.00 0.00 84 1031.9
20181117164520 16 31 10.0 16.0 0.00 0.00 0.00 84 1031.7
20181117164020 16 28 10.0 16.0 0.00 0.00 0.00 85 1031.8
20181117163520 16 18 9.0 15.0 0.00 0.00 0.00 84 1032.0
20181117163019 16 10 7.0 12.0 0.00 0.00 0.00 83 1031.9
20181117162521 16 22 8.0 17.0 0.00 0.00 0.00 86 1032.0
20181117162020 16 29 9.0 17.0 0.00 0.00 0.00 85 1031.8
20181117161519 16 21 8.0 16.0 0.00 0.00 0.00 85 1031.9
20181117161020 16 19 10.0 16.0 0.00 0.00 0.00 84 1031.8
20181117160519 16 28 9.0 16.0 0.00 0.00 0.00 85 1031.9